Flood From: 19-02-2018 10:30 Until: 20-02-2018 06:00 warning for: Flood Level: Yellow info button

Although rather usual in this region, locally or potentially dangerous phenomena are expected. (such as local winds, summer thunderstorms, rising streams or high waves) Be aware and pay attention to the latest weather updates, especially if you carry out activities exposed to weather or close to a stream or shoreline. 


Meteo18 Weather Cam more information Meteo18 Weather Cam


Thunder radar more information blitzortung!


Rain radar more information rain snow radar


Visit our other weather sites:

Template documentation
and downloads

And another site



Weather Underground History page Text

Daily Summary for July 20, 2017 Units:  English    Metric   Both
« Previous Day
Next Day »
Daily Weekly Monthly Yearly Custom
  High: Low: Average:
Temperature: TemperatureC °F 15.6 °F 19.8 °F
Dew Point: DewpointC °F 12.0 °F 14.5 °F
Humidity: Humidity % 52 % 72 %
Wind Speed: WindSpeedKMH mph 0.0 mph 7.9 mph
Wind Gust: WindSpeedGustKMH mph - -
Wind:- - WSW
Pressure: PressurehPa in 1013.4 in -
Precipitation: 0.0 in    
Historical Graphs
 
 
Tabular Data for July 20, 2017
Time Temperature Dew Point Pressure Wind Wind Speed Wind Gust Humidity Rainfall Rate (Hourly)
TemperatureC °F DewpointC °F PressurehPa in Calm     Humidity % HourlyPrecipMM in
00:02 20.8 °F 18.6 °F 1013.8 in WSW 6.4 mph 11.3 mph 87 % 0.0 in
00:12 20.8 °F 18.4 °F 1013.8 in SW 9.7 mph 12.9 mph 86 % 0.0 in
00:17 20.8 °F 18.4 °F 1013.8 in WSW 4.8 mph 12.9 mph 86 % 0.0 in
00:22 20.8 °F 18.4 °F 1013.8 in SW 6.4 mph 14.5 mph 86 % 0.0 in
00:32 20.8 °F 18.2 °F 1013.8 in SW 1.6 mph 11.3 mph 85 % 0.0 in
00:37 20.7 °F 18.1 °F 1013.8 in West 6.4 mph 11.3 mph 85 % 0.0 in
00:42 20.7 °F 18.1 °F 1013.8 in West 1.6 mph 11.3 mph 85 % 0.0 in
00:47 20.7 °F 17.9 °F 1013.8 in West 11.3 mph 12.9 mph 84 % 0.0 in
00:52 20.7 °F 17.7 °F 1013.8 in SW 6.4 mph 12.9 mph 83 % 0.0 in
00:57 20.7 °F 17.7 °F 1014.1 in WSW 6.4 mph 17.7 mph 83 % 0.0 in
01:02 20.6 °F 17.6 °F 1014.1 in WSW 9.7 mph 17.7 mph 83 % 0.0 in
01:07 20.6 °F 17.6 °F 1014.1 in WSW 6.4 mph 16.1 mph 83 % 0.0 in
01:12 20.5 °F 17.5 °F 1014.1 in West 4.8 mph 14.5 mph 83 % 0.0 in
01:22 20.3 °F 17.5 °F 1013.8 in SW 4.8 mph 14.5 mph 84 % 0.0 in
01:27 20.2 °F 17.4 °F 1014.1 in WSW 4.8 mph 14.5 mph 84 % 0.0 in
01:32 20.2 °F 17.6 °F 1014.1 in WSW 6.4 mph 14.5 mph 85 % 0.0 in
01:42 20.0 °F 17.4 °F 1013.8 in SW 4.8 mph 9.7 mph 85 % 0.0 in
01:47 19.9 °F 17.3 °F 1013.8 in SW 12.9 mph 12.9 mph 85 % 0.0 in
01:52 19.9 °F 17.3 °F 1013.8 in SW 4.8 mph 14.5 mph 85 % 0.0 in
01:57 19.8 °F 17.2 °F 1013.8 in SW 8.0 mph 14.5 mph 85 % 0.0 in
02:02 19.7 °F 17.1 °F 1013.8 in WSW 3.2 mph 14.5 mph 85 % 0.0 in
02:07 19.7 °F 17.1 °F 1014.1 in SSW 3.2 mph 14.5 mph 85 % 0.0 in
02:12 19.6 °F 17.0 °F 1014.1 in SW 4.8 mph 11.3 mph 85 % 0.0 in
02:17 19.6 °F 17.0 °F 1014.1 in WSW 8.0 mph 12.9 mph 85 % 0.0 in
02:22 19.5 °F 16.9 °F 1014.1 in SW 4.8 mph 12.9 mph 85 % 0.0 in
02:32 19.4 °F 17.0 °F 1013.8 in SW 3.2 mph 11.3 mph 86 % 0.0 in
02:42 19.3 °F 16.9 °F 1013.8 in SW 1.6 mph 11.3 mph 86 % 0.0 in
02:52 19.2 °F 16.8 °F 1013.8 in SW 6.4 mph 11.3 mph 86 % 0.0 in
02:57 19.1 °F 16.7 °F 1013.8 in WSW 8.0 mph 11.3 mph 86 % 0.0 in
03:02 19.1 °F 16.9 °F 1014.1 in SSW 11.3 mph 11.3 mph 87 % 0.0 in
03:07 19.0 °F 16.8 °F 1013.8 in South 3.2 mph 12.9 mph 87 % 0.0 in
03:12 19.0 °F 16.6 °F 1013.8 in SW 8.0 mph 12.9 mph 86 % 0.0 in
03:17 19.0 °F 16.6 °F 1014.1 in SSW 3.2 mph 12.9 mph 86 % 0.0 in
03:22 19.0 °F 16.6 °F 1014.1 in SW 8.0 mph 12.9 mph 86 % 0.0 in
03:32 18.9 °F 16.5 °F 1013.8 in SW 4.8 mph 12.9 mph 86 % 0.0 in
03:42 18.9 °F 16.3 °F 1013.8 in SSW 11.3 mph 14.5 mph 85 % 0.0 in
03:47 18.9 °F 16.3 °F 1013.8 in SSW 4.8 mph 12.9 mph 85 % 0.0 in
03:52 18.8 °F 16.4 °F 1013.8 in SSW 8.0 mph 12.9 mph 86 % 0.0 in
04:02 18.7 °F 16.3 °F 1013.8 in SW 4.8 mph 12.9 mph 86 % 0.0 in
04:07 18.6 °F 16.2 °F 1013.4 in SW 8.0 mph 11.3 mph 86 % 0.0 in
04:12 18.6 °F 16.2 °F 1013.4 in SSW 3.2 mph 11.3 mph 86 % 0.0 in
04:17 18.6 °F 16.2 °F 1013.4 in SW 4.8 mph 12.9 mph 86 % 0.0 in
04:22 18.7 °F 16.1 °F 1013.4 in WSW 8.0 mph 12.9 mph 85 % 0.0 in
04:27 18.7 °F 16.1 °F 1013.4 in WSW 8.0 mph 12.9 mph 85 % 0.0 in
04:32 18.7 °F 16.1 °F 1013.4 in SW 4.8 mph 12.9 mph 85 % 0.0 in
04:42 18.3 °F 15.7 °F 1013.4 in SW 3.2 mph 11.3 mph 85 % 0.0 in
04:47 18.1 °F 15.7 °F 1013.4 in SSE 4.8 mph 11.3 mph 86 % 0.0 in
04:52 17.9 °F 15.7 °F 1013.4 in SSW 1.6 mph 11.3 mph 87 % 0.0 in
05:02 17.7 °F 15.7 °F 1013.4 in SW 4.8 mph 8.0 mph 88 % 0.0 in
05:12 17.7 °F 15.7 °F 1013.4 in WSW 3.2 mph 8.0 mph 88 % 0.0 in
05:17 17.7 °F 15.9 °F 1013.4 in WSW 4.8 mph 9.7 mph 89 % 0.0 in
05:22 17.7 °F 15.9 °F 1013.4 in SW 4.8 mph 9.7 mph 89 % 0.0 in
05:27 17.7 °F 15.9 °F 1013.8 in SSW 4.8 mph 9.7 mph 89 % 0.0 in
05:32 17.6 °F 15.8 °F 1013.8 in SSW 6.4 mph 9.7 mph 89 % 0.0 in
05:42 17.9 °F 16.1 °F 1013.8 in SW 6.4 mph 11.3 mph 89 % 0.0 in
05:47 18.2 °F 16.2 °F 1013.8 in WSW 6.4 mph 12.9 mph 88 % 0.0 in
05:52 18.3 °F 16.1 °F 1013.8 in SW 16.1 mph 16.1 mph 87 % 0.0 in
06:02 18.6 °F 16.0 °F 1013.8 in SW 11.3 mph 17.7 mph 85 % 0.0 in
06:12 18.5 °F 15.9 °F 1013.8 in SW 11.3 mph 19.3 mph 85 % 0.0 in
06:17 18.4 °F 15.8 °F 1013.8 in SW 11.3 mph 20.9 mph 85 % 0.0 in
06:22 18.4 °F 15.8 °F 1013.8 in SSW 11.3 mph 20.9 mph 85 % 0.0 in
06:32 18.5 °F 15.9 °F 1014.1 in WSW 9.7 mph 17.7 mph 85 % 0.0 in
06:42 18.5 °F 15.9 °F 1014.1 in SW 11.3 mph 20.9 mph 85 % 0.0 in
06:47 18.6 °F 16.2 °F 1014.1 in SW 9.7 mph 19.3 mph 86 % 0.0 in
06:52 18.6 °F 16.2 °F 1014.1 in South 12.9 mph 19.3 mph 86 % 0.0 in
06:57 18.6 °F 16.2 °F 1014.4 in SSW 9.7 mph 19.3 mph 86 % 0.0 in
07:02 18.6 °F 16.2 °F 1014.4 in SW 11.3 mph 19.3 mph 86 % 0.0 in
07:12 18.6 °F 16.2 °F 1014.4 in SSW 11.3 mph 19.3 mph 86 % 0.0 in
07:17 18.6 °F 16.2 °F 1014.4 in SW 6.4 mph 22.5 mph 86 % 0.0 in
07:27 18.6 °F 16.2 °F 1014.4 in WSW 9.7 mph 22.5 mph 86 % 0.0 in
07:32 18.6 °F 16.0 °F 1014.4 in WSW 11.3 mph 22.5 mph 85 % 0.0 in
07:42 18.7 °F 16.1 °F 1014.4 in SSW 24.1 mph 24.1 mph 85 % 0.0 in
07:47 18.7 °F 16.1 °F 1014.4 in SSW 4.8 mph 25.7 mph 85 % 0.0 in
07:52 18.8 °F 16.0 °F 1014.4 in WSW 12.9 mph 25.7 mph 84 % 0.0 in
08:02 18.7 °F 15.8 °F 1014.4 in WSW 8.0 mph 25.7 mph 83 % 0.0 in
08:12 18.6 °F 15.7 °F 1014.4 in SW 4.8 mph 25.7 mph 83 % 0.0 in
08:17 18.8 °F 15.9 °F 1014.4 in WSW 14.5 mph 25.7 mph 83 % 0.0 in
08:27 18.8 °F 15.9 °F 1014.4 in WNW 11.3 mph 22.5 mph 83 % 0.0 in
08:32 18.8 °F 15.9 °F 1014.4 in WSW 17.7 mph 22.5 mph 83 % 0.0 in
08:37 18.7 °F 15.8 °F 1014.4 in WSW 11.3 mph 30.6 mph 83 % 0.0 in
08:42 18.8 °F 15.9 °F 1014.4 in SW 19.3 mph 30.6 mph 83 % 0.0 in
08:47 18.8 °F 15.9 °F 1014.4 in West 8.0 mph 32.2 mph 83 % 0.0 in
08:52 18.8 °F 15.9 °F 1014.4 in WSW 12.9 mph 32.2 mph 83 % 0.0 in
09:02 18.9 °F 15.8 °F 1014.4 in WSW 11.3 mph 30.6 mph 82 % 0.0 in
09:07 19.1 °F 16.0 °F 1014.8 in WSW 9.7 mph 30.6 mph 82 % 0.0 in
09:17 19.5 °F 16.2 °F 1014.4 in WSW 14.5 mph 25.7 mph 81 % 0.0 in
09:22 19.7 °F 16.0 °F 1014.4 in WSW 12.9 mph 25.7 mph 79 % 0.0 in
09:32 19.4 °F 15.7 °F 1014.8 in WNW 16.1 mph 25.7 mph 79 % 0.0 in
09:42 19.6 °F 15.7 °F 1014.4 in WSW 9.7 mph 25.7 mph 78 % 0.0 in
09:52 20.0 °F 15.4 °F 1014.4 in SW 17.7 mph 32.2 mph 75 % 0.0 in
09:57 19.9 °F 15.3 °F 1014.4 in WSW 27.4 mph 27.4 mph 75 % 0.0 in
10:02 19.8 °F 14.8 °F 1014.8 in West 27.4 mph 27.4 mph 73 % 0.0 in
10:12 19.7 °F 14.7 °F 1014.8 in West 17.7 mph 30.6 mph 73 % 0.0 in
10:17 19.8 °F 14.8 °F 1014.8 in West 9.7 mph 35.4 mph 73 % 0.0 in
10:22 19.9 °F 14.7 °F 1014.8 in WSW 24.1 mph 35.4 mph 72 % 0.0 in
10:32 20.1 °F 14.7 °F 1014.8 in WSW 22.5 mph 33.8 mph 71 % 0.0 in
10:42 20.7 °F 15.3 °F 1015.1 in SW 19.3 mph 30.6 mph 71 % 0.0 in
10:47 20.8 °F 14.7 °F 1015.1 in WNW 12.9 mph 40.2 mph 68 % 0.0 in
10:52 20.7 °F 14.8 °F 1015.1 in WSW 16.1 mph 40.2 mph 69 % 0.0 in
11:02 20.4 °F 14.3 °F 1015.1 in WSW 14.5 mph 33.8 mph 68 % 0.0 in
11:12 20.4 °F 14.7 °F 1015.1 in West 6.4 mph 32.2 mph 70 % 0.0 in
11:17 20.6 °F 14.7 °F 1015.1 in West 14.5 mph 27.4 mph 69 % 0.0 in
11:22 20.5 °F 14.8 °F 1015.1 in SW 16.1 mph 27.4 mph 70 % 0.0 in
11:32 20.2 °F 14.8 °F 1015.1 in SW 9.7 mph 27.4 mph 71 % 0.0 in
11:37 20.2 °F 14.3 °F 1015.1 in WSW 17.7 mph 27.4 mph 69 % 0.0 in
11:42 20.1 °F 14.0 °F 1015.1 in SW 25.7 mph 27.4 mph 68 % 0.0 in
11:52 20.2 °F 14.3 °F 1015.5 in SSW 12.9 mph 32.2 mph 69 % 0.0 in
12:02 20.2 °F 14.3 °F 1015.5 in West 14.5 mph 32.2 mph 69 % 0.0 in
12:12 20.3 °F 13.7 °F 1015.5 in West 14.5 mph 20.9 mph 66 % 0.0 in
12:17 20.5 °F 13.9 °F 1015.5 in SW 9.7 mph 30.6 mph 66 % 0.0 in
12:22 20.5 °F 13.7 °F 1015.5 in SW 24.1 mph 30.6 mph 65 % 0.0 in
12:32 20.6 °F 13.3 °F 1015.5 in West 11.3 mph 32.2 mph 63 % 0.0 in
12:42 21.1 °F 13.5 °F 1015.5 in West 11.3 mph 32.2 mph 62 % 0.0 in
12:52 21.6 °F 13.2 °F 1015.5 in WSW 9.7 mph 32.2 mph 59 % 0.0 in
12:57 21.3 °F 13.2 °F 1015.8 in West 4.8 mph 27.4 mph 60 % 0.0 in
13:02 21.1 °F 13.0 °F 1015.8 in West 9.7 mph 27.4 mph 60 % 0.0 in
13:07 20.8 °F 13.3 °F 1015.8 in West 9.7 mph 24.1 mph 62 % 0.0 in
13:12 20.8 °F 13.3 °F 1015.8 in SW 17.7 mph 24.1 mph 62 % 0.0 in
13:17 20.8 °F 13.3 °F 1015.8 in SW 17.7 mph 22.5 mph 62 % 0.0 in
13:22 20.9 °F 13.3 °F 1015.8 in West 12.9 mph 22.5 mph 62 % 0.0 in
13:32 20.9 °F 13.6 °F 1015.8 in WSW 3.2 mph 25.7 mph 63 % 0.0 in
13:42 20.7 °F 13.4 °F 1015.8 in WSW 8.0 mph 24.1 mph 63 % 0.0 in
13:52 20.5 °F 13.9 °F 1015.8 in WNW 9.7 mph 24.1 mph 66 % 0.0 in
14:02 20.2 °F 13.9 °F 1016.1 in West 12.9 mph 17.7 mph 67 % 0.0 in
14:12 20.2 °F 13.6 °F 1016.1 in SW 6.4 mph 17.7 mph 66 % 0.0 in
14:17 20.2 °F 13.9 °F 1016.1 in WSW 9.7 mph 19.3 mph 67 % 0.0 in
14:22 20.4 °F 13.8 °F 1016.1 in WSW 8.0 mph 19.3 mph 66 % 0.0 in
14:32 20.7 °F 13.6 °F 1016.1 in SW 19.3 mph 19.3 mph 64 % 0.0 in
14:42 20.6 °F 13.8 °F 1015.8 in West 8.0 mph 22.5 mph 65 % 0.0 in
14:47 20.6 °F 13.8 °F 1015.8 in West 6.4 mph 19.3 mph 65 % 0.0 in
14:52 20.6 °F 13.8 °F 1016.1 in West 14.5 mph 19.3 mph 65 % 0.0 in
15:02 20.5 °F 13.5 °F 1015.8 in SW 12.9 mph 19.3 mph 64 % 0.0 in
15:07 20.5 °F 13.5 °F 1016.1 in West 9.7 mph 20.9 mph 64 % 0.0 in
15:12 20.5 °F 13.7 °F 1016.1 in WSW 4.8 mph 20.9 mph 65 % 0.0 in
15:17 20.6 °F 13.8 °F 1016.1 in West 3.2 mph 17.7 mph 65 % 0.0 in
15:22 20.7 °F 14.1 °F 1016.1 in SW 3.2 mph 17.7 mph 66 % 0.0 in
15:32 21.1 °F 13.8 °F 1016.1 in WNW 8.0 mph 17.7 mph 63 % 0.0 in
15:42 20.8 °F 13.5 °F 1016.1 in WNW 9.7 mph 17.7 mph 63 % 0.0 in
15:52 20.8 °F 13.5 °F 1016.1 in WNW 9.7 mph 19.3 mph 63 % 0.0 in
15:57 20.8 °F 13.5 °F 1016.1 in SSW 8.0 mph 17.7 mph 63 % 0.0 in
16:02 20.9 °F 13.1 °F 1016.1 in WNW 12.9 mph 17.7 mph 61 % 0.0 in
16:12 21.0 °F 13.2 °F 1015.8 in WSW 11.3 mph 17.7 mph 61 % 0.0 in
16:17 21.1 °F 13.5 °F 1015.8 in West 8.0 mph 19.3 mph 62 % 0.0 in
16:22 21.2 °F 13.4 °F 1015.8 in SSW 3.2 mph 19.3 mph 61 % 0.0 in
16:32 21.1 °F 13.3 °F 1015.8 in SW 9.7 mph 16.1 mph 61 % 0.0 in
16:42 21.3 °F 13.2 °F 1015.8 in SW 11.3 mph 19.3 mph 60 % 0.0 in
16:47 21.4 °F 13.6 °F 1015.8 in SSW 9.7 mph 14.5 mph 61 % 0.0 in
16:52 21.4 °F 13.3 °F 1015.8 in South 6.4 mph 14.5 mph 60 % 0.0 in
16:57 21.5 °F 13.1 °F 1015.8 in WSW 4.8 mph 14.5 mph 59 % 0.0 in
17:02 21.6 °F 12.7 °F 1015.8 in West 6.4 mph 14.5 mph 57 % 0.0 in
17:07 21.6 °F 12.7 °F 1015.8 in WSW 11.3 mph 16.1 mph 57 % 0.0 in
17:12 21.6 °F 12.7 °F 1015.8 in WNW 8.0 mph 16.1 mph 57 % 0.0 in
17:17 21.5 °F 12.6 °F 1015.8 in West 11.3 mph 19.3 mph 57 % 0.0 in
17:22 21.6 °F 12.7 °F 1015.8 in WSW 3.2 mph 19.3 mph 57 % 0.0 in
17:27 21.7 °F 12.8 °F 1015.8 in SW 8.0 mph 17.7 mph 57 % 0.0 in
17:32 21.7 °F 12.8 °F 1015.8 in WSW 9.7 mph 17.7 mph 57 % 0.0 in
17:37 21.9 °F 13.0 °F 1015.5 in WSW 9.7 mph 14.5 mph 57 % 0.0 in
17:47 22.1 °F 12.4 °F 1015.5 in West 11.3 mph 19.3 mph 54 % 0.0 in
17:52 22.1 °F 12.6 °F 1015.8 in West 12.9 mph 19.3 mph 55 % 0.0 in
18:02 22.1 °F 12.6 °F 1015.5 in West 14.5 mph 20.9 mph 55 % 0.0 in
18:12 22.0 °F 12.5 °F 1015.5 in SW 4.8 mph 19.3 mph 55 % 0.0 in
18:17 22.1 °F 12.6 °F 1015.5 in West 9.7 mph 22.5 mph 55 % 0.0 in
18:22 22.2 °F 12.7 °F 1015.5 in SW 9.7 mph 22.5 mph 55 % 0.0 in
18:27 22.3 °F 12.5 °F 1015.5 in West 8.0 mph 22.5 mph 54 % 0.0 in
18:32 22.4 °F 12.6 °F 1015.5 in WSW 9.7 mph 20.9 mph 54 % 0.0 in
18:37 22.4 °F 12.6 °F 1015.5 in WNW 8.0 mph 20.9 mph 54 % 0.0 in
18:42 22.3 °F 12.3 °F 1015.5 in SW 9.7 mph 19.3 mph 53 % 0.0 in
18:52 22.1 °F 12.6 °F 1015.5 in West 4.8 mph 19.3 mph 55 % 0.0 in
18:57 22.1 °F 12.6 °F 1015.5 in WSW 4.8 mph 19.3 mph 55 % 0.0 in
19:02 22.1 °F 12.6 °F 1015.5 in SW 3.2 mph 19.3 mph 55 % 0.0 in
19:07 22.5 °F 12.7 °F 1015.5 in WSW 3.2 mph 12.9 mph 54 % 0.0 in
19:17 22.9 °F 12.5 °F 1015.5 in West 9.7 mph 16.1 mph 52 % 0.0 in
19:22 22.8 °F 12.7 °F 1015.1 in West 3.2 mph 16.1 mph 53 % 0.0 in
19:27 22.9 °F 12.5 °F 1015.1 in West 9.7 mph 16.1 mph 52 % 0.0 in
19:32 22.8 °F 12.7 °F 1015.1 in West 8.0 mph 16.1 mph 53 % 0.0 in
19:37 22.6 °F 12.2 °F 1015.5 in West 4.8 mph 16.1 mph 52 % 0.0 in
19:42 22.4 °F 12.3 °F 1015.5 in WSW 11.3 mph 16.1 mph 53 % 0.0 in
19:47 22.1 °F 12.4 °F 1015.5 in WNW 4.8 mph 12.9 mph 54 % 0.0 in
19:52 21.9 °F 12.5 °F 1015.5 in West 3.2 mph 12.9 mph 55 % 0.0 in
19:57 21.9 °F 12.7 °F 1015.5 in Calm   12.9 mph 56 % 0.0 in
20:02 21.9 °F 12.7 °F 1015.5 in Calm   12.9 mph 56 % 0.0 in
20:07 22.3 °F 12.5 °F 1015.5 in WSW 3.2 mph 8.0 mph 54 % 0.0 in
20:12 22.6 °F 12.5 °F 1015.5 in West 4.8 mph 8.0 mph 53 % 0.0 in
20:17 22.7 °F 12.6 °F 1015.5 in Calm   8.0 mph 53 % 0.0 in
20:22 22.8 °F 12.7 °F 1015.5 in NW 6.4 mph 8.0 mph 53 % 0.0 in
20:32 22.7 °F 12.9 °F 1015.5 in Calm   12.9 mph 54 % 0.0 in
20:37 22.6 °F 12.8 °F 1015.5 in WNW 3.2 mph 11.3 mph 54 % 0.0 in
20:42 22.3 °F 12.8 °F 1015.5 in North 4.8 mph 11.3 mph 55 % 0.0 in
20:52 21.8 °F 12.6 °F 1015.5 in NW 3.2 mph 9.7 mph 56 % 0.0 in
21:02 21.1 °F 12.5 °F 1015.5 in Calm   8.0 mph 58 % 0.0 in
21:07 20.8 °F 12.5 °F 1015.5 in Calm   4.8 mph 59 % 0.0 in
21:17 20.3 °F 12.5 °F 1015.5 in Calm     61 % 0.0 in
21:22 20.1 °F 12.6 °F 1015.5 in Calm     62 % 0.0 in
21:27 19.7 °F 12.5 °F 1015.5 in WNW 3.2 mph 3.2 mph 63 % 0.0 in
21:32 19.2 °F 12.5 °F 1015.5 in Calm   3.2 mph 65 % 0.0 in
21:37 18.8 °F 12.3 °F 1015.5 in Calm   4.8 mph 66 % 0.0 in
21:42 18.6 °F 12.6 °F 1015.5 in Calm   4.8 mph 68 % 0.0 in
21:47 18.4 °F 12.6 °F 1015.5 in Calm   1.6 mph 69 % 0.0 in
21:52 18.3 °F 12.5 °F 1015.5 in Calm   1.6 mph 69 % 0.0 in
21:57 18.3 °F 12.5 °F 1015.8 in Calm   1.6 mph 69 % 0.0 in
22:02 18.1 °F 12.3 °F 1015.8 in Calm   1.6 mph 69 % 0.0 in
22:12 17.5 °F 12.4 °F 1015.8 in Calm   1.6 mph 72 % 0.0 in
22:17 17.4 °F 12.3 °F 1015.8 in Calm     72 % 0.0 in
22:27 17.4 °F 12.3 °F 1015.8 in Calm     72 % 0.0 in
22:37 17.2 °F 12.3 °F 1016.1 in Calm     73 % 0.0 in
22:42 17.0 °F 12.3 °F 1016.1 in Calm     74 % 0.0 in
22:52 16.4 °F 12.2 °F 1016.1 in Calm     76 % 0.0 in
22:57 16.2 °F 12.2 °F 1015.8 in Calm     77 % 0.0 in
23:07 15.9 °F 12.3 °F 1016.1 in Calm     79 % 0.0 in
23:17 16.1 °F 12.1 °F 1016.1 in Calm     77 % 0.0 in
23:22 16.0 °F 12.0 °F 1016.1 in Calm     77 % 0.0 in
23:27 15.9 °F 12.1 °F 1016.1 in Calm     78 % 0.0 in
23:32 15.8 °F 12.2 °F 1016.1 in Calm     79 % 0.0 in
23:42 15.7 °F 12.1 °F 1016.1 in Calm     79 % 0.0 in
23:47 15.7 °F 12.1 °F 1016.1 in Calm     79 % 0.0 in
23:52 15.7 °F 12.1 °F 1016.1 in Calm     79 % 0.0 in
23:57 15.6 °F 12.0 °F 1016.1 in Calm     79 % 0.0 in
Meteo18
Compliments of Weather Underground - 4 mb

Script developed by  Jim McMurry - jmcmurry@mwt.net Adapted for the template by  Wim van der Kuil - Leuven-Template.eu

You find our weather info also at:

European Weather Network

Weather Underground

Equipment we use:

Weather-station
Davis Vue

Weather-program
Meteobridge

Weather-server
Raspberry PI 2 B+

Provider
1 and 1

Davis Vue

Meteobridge

Raspberry PI 2 B+

1 and 1